Location: Cabeza Gorda
(40.0667°N, 4.9667°W)
Time: 18:43:31
(UTC+00:00)

Cosmos 1805 Rocket - Pass Details

Date: 15 January 2026
Orbit: 599 x 623 km, 82.5° (Epoch: 10 February)

Event Time Altitude Azimuth Distance (km) Brightness Sun altitude
Rises 06:00:41 0° 192° (SSW) 2,888 7.0 -18.7°
Reaches altitude 10° 06:02:55 10° 195° (SSW) 1,987 6.1 -18.3°
Maximum altitude 06:07:18 68° 278° (W) 674 3.4 -17.5°
Drops below altitude 10° 06:11:43 10° 2° (N) 1,997 6.0 -16.6°
Sets 06:13:58 0° 5° (N) 2,904 6.9 -16.2°
